Location: Dodge City Community College Clyde Tombaugh Astronomy Center
(37.7756°N, 100.0412°W)
Time: 01:05:36
(UTC+00:00)

Cosmos 2228 Rocket - Pass Details

Date: 04 July 2022
Orbit: 618 x 651 km, 82.5° (Epoch: 16 August)

Event Time Altitude Azimuth Distance (km) Brightness Sun altitude
Rises 09:12:25 0° 10° (N) 2,918 7.6 -20.1°
Reaches altitude 10° 09:15:14 10° 28° (NNE) 2,012 6.9 -19.8°
Maximum altitude 09:18:26 19° 74° (ENE) 1,502 5.7 -19.4°
Drops below altitude 10° 09:21:38 10° 120° (ESE) 2,016 5.8 -19.0°
Sets 09:24:26 0° 138° (SE) 2,926 6.4 -18.7°
